This demonstration page uses our WeatherBlox Daily Observations layout. Learn more.

40.92945, -100.16068

Hourly Observations for March 30, 2020

Temp ( °F °C ) Dew Point ( °F °C ) Humidity (%) Winds ( mph kmh ) Pressure ( in mb ) Visibility ( mi km ) Precip ( " mm )
12:15 am 00:15 Partly Cloudy 40 4.7 35 1.8 82 82 SSE 3 6 30.15 1021 10 16.0934 0 0
12:35 am 00:35 Clear 39 3.8 35 1.4 85 85 SSE 3 6 30.16 1021 10 16.0934 0 0
12:55 am 00:55 Clear 40 4.7 34 1.1 78 78 SE 3 6 30.15 1021 10 16.0934 0 0
1:15 am 01:15 Clear 41 5 32 0.1 71 71 SE 5 7 30.16 1021 10 16.0934 0 0
1:35 am 01:35 Clear 38 3.2 33 0.5 83 83 Calm 30.18 1022 10 16.0934 0 0
1:55 am 01:55 Clear 38 3.6 33 0.3 79 79 Calm 30.17 1022 10 16.0934 0 0
2:15 am 02:15 Clear 35 1.8 32 0.1 89 89 SE 3 6 30.19 1022 10 16.0934 0 0
2:35 am 02:35 Clear 37 2.6 32 0.2 84 84 Calm 30.18 1022 10 16.0934 0 0
2:55 am 02:55 Clear 35 1.9 32 0 87 87 ESE 3 6 30.19 1022 10 16.0934 0 0
3:15 am 03:15 Clear 36 2.2 32 -0.1 85 85 SE 5 7 30.19 1022 10 16.0934 0 0
3:35 am 03:35 Clear 36 2.4 32 -0.1 84 84 SE 6 9 30.19 1022 10 16.0934 0 0
3:55 am 03:55 Clear 40 4.6 32 0 72 72 SSE 8 13 30.16 1021 10 16.0934 0 0
4:15 am 04:15 Clear 39 3.9 32 0 76 76 SSE 8 13 30.17 1022 10 16.0934 0 0
4:35 am 04:35 Clear 41 5 32 0 70 70 SE 7 11 30.16 1021 10 16.0934 0 0
4:55 am 04:55 Clear 41 5 31 -0.4 68 68 SE 5 7 30.15 1021 10 16.0934 0 0
5:15 am 05:15 Clear 39 4.1 31 -0.7 71 71 ESE 6 9 30.16 1021 10 16.0934 0 0
5:35 am 05:35 Clear 36 2.2 31 -0.3 84 84 E 5 7 30.18 1022 10 16.0934 0 0
5:55 am 05:55 Clear 35 1.7 31 -0.7 84 84 ESE 5 7 30.17 1022 10 16.0934 0 0
6:15 am 06:15 Clear 38 3.1 31 -0.4 78 78 SE 7 11 30.16 1021 10 16.0934 0 0
6:35 am 06:35 Clear 38 3.3 32 0 79 79 ESE 8 13 30.14 1021 10 16.0934 0 0
6:55 am 06:55 Clear 39 4 32 0.2 77 77 ESE 5 7 30.15 1021 10 16.0934 0 0
7:15 am 07:15 Partly Cloudy 39 3.7 33 0.7 81 81 Calm 30.15 1021 10 16.0934 0 0
7:35 am 07:35 Cloudy 39 4.1 34 1.1 81 81 ESE 5 7 30.15 1021 10 16.0934 0 0
7:55 am 07:55 Cloudy 39 4.1 34 1.1 81 81 E 5 7 30.16 1021 10 16.0934 0 0
8:15 am 08:15 Cloudy 39 4 35 1.7 85 85 E 7 11 30.15 1021 10 16.0934 0 0
8:35 am 08:35 Cloudy 40 4.3 36 2 85 85 E 6 9 30.15 1021 10 16.0934 0 0
8:55 am 08:55 Mostly Cloudy 42 5.6 36 2.3 80 80 E 6 9 30.13 1020 10 16.0934 0 0
9:15 am 09:15 Mostly Cloudy 44 6.6 36 2.3 74 74 ESE 9 15 30.12 1020 10 16.0934 0 0
9:35 am 09:35 Mostly Cloudy 45 7.1 38 3.1 76 76 ESE 9 15 30.12 1020 10 16.0934 0 0
9:55 am 09:55 Cloudy 46 7.6 37 2.9 72 72 SE 8 13 30.11 1020 10 16.0934 0 0
10:15 am 10:15 Cloudy 47 8.4 38 3.6 72 72 SE 9 15 30.11 1020 10 16.0934 0 0
10:35 am 10:35 Cloudy 49 9.5 39 3.9 68 68 ESE 8 13 30.1 1019 10 16.0934 0 0
10:55 am 10:55 Cloudy 51 10.6 40 4.5 66 66 SE 8 13 30.09 1019 10 16.0934 0 0
11:15 am 11:15 Mostly Cloudy 54 12 40 4.4 60 60 SE 10 17 30.06 1018 10 16.0934 0 0
11:35 am 11:35 Mostly Cloudy 54 12 39 3.8 58 58 SE 10 17 30.06 1018 10 16.0934 0 0
11:55 am 11:55 Mostly Cloudy 56 13.1 41 4.8 57 57 SE 12 19 30.04 1017 10 16.0934 0 0
12:15 pm 12:15 Partly Cloudy 58 14.4 41 5 53 53 SE 15 24 30.02 1017 10 16.0934 0 0
12:35 pm 12:35 Partly Cloudy 59 14.9 39 3.8 48 48 SSE 13 20 30.01 1016 10 16.0934 0 0
12:55 pm 12:55 Mostly Cloudy 58 14.7 37 2.9 45 45 SE 16 26 30.01 1016 10 16.0934 0 0
1:15 pm 13:15 Cloudy 58 14.5 38 3.2 47 47 SSE 15 24 30.01 1016 10 16.0934 0 0
1:35 pm 13:35 Cloudy 58 14.5 38 3.5 48 48 SSE 12 19 30 1016 10 16.0934 0 0
1:55 pm 13:55 Mostly Cloudy 58 14.6 39 3.9 49 49 SE 9 15 29.98 1015 10 16.0934 0 0
2:15 pm 14:15 Partly Cloudy 59 15 41 4.8 51 51 SE 8 13 29.97 1015 10 16.0934 0 0
2:35 pm 14:35 Partly Cloudy 62 16.4 39 3.7 43 43 S 16 26 29.94 1014 10 16.0934 0 0
2:55 pm 14:55 Mostly Cloudy 60 15.4 39 4 47 47 SSE 13 20 29.94 1014 10 16.0934 0 0
3:15 pm 15:15 Cloudy 59 15 39 4 48 48 SSE 9 15 29.95 1014 10 16.0934 0 0
3:35 pm 15:35 Cloudy 59 14.9 40 4.5 50 50 SSE 8 13 29.94 1014 10 16.0934 0 0
3:55 pm 15:55 Cloudy with Light Rain 56 13.5 42 5.7 60 60 SE 18 30 29.96 1015 10 16.0934 0 0
4:15 pm 16:15 Cloudy 56 13.3 40 4.6 56 56 ESE 6 9 29.95 1014 10 16.0934 0 0
4:35 pm 16:35 Cloudy 56 13.2 40 4.2 55 55 S 3 6 29.94 1014 10 16.0934 0 0
4:55 pm 16:55 Cloudy 53 11.6 44 6.9 73 73 W 12 19 29.98 1015 10 16.0934 0 0
5:15 pm 17:15 Cloudy with Light Rain 52 11.3 44 6.4 72 72 Calm 30 1016 10 16.0934 0.01 0.254
5:35 pm 17:35 Cloudy with Light Rain 52 11.1 45 7 76 76 NNE 5 7 29.98 1015 10 16.0934 0.02 0.508
5:55 pm 17:55 Cloudy 51 10.5 45 7.4 81 81 N 9 15 29.98 1015 10 16.0934 0.02 0.508
6:15 pm 18:15 Cloudy 50 10.1 46 7.9 86 86 NW 5 7 29.99 1016 10 16.0934 0 0
6:35 pm 18:35 Cloudy with Light Drizzle 51 10.6 46 7.5 81 81 NNW 13 20 29.99 1015 10 16.0934 0 0
6:55 pm 18:55 Cloudy 51 10.4 46 7.5 82 82 NNE 3 6 30.01 1016 10 16.0934 0 0
7:15 pm 19:15 Cloudy with Light Rain 50 10.1 45 7.3 83 83 NNE 5 7 30.03 1017 10 16.0934 0 0
7:35 pm 19:35 Cloudy with Light Drizzle 51 10.6 44 6.5 76 76 Calm 30.03 1017 10 16.0934 0 0
7:55 pm 19:55 Cloudy with Light Rain 49 9.7 46 7.6 87 87 ENE 5 7 30.04 1017 10 16.0934 0 0
8:15 pm 20:15 Cloudy with Light Rain 48 9 46 7.7 92 92 Calm 30.05 1018 10 16.0934 0 0
8:35 pm 20:35 Cloudy with Light Rain 49 9.3 45 7.2 87 87 S 8 13 30.05 1018 10 16.0934 0.01 0.254
8:55 pm 20:55 Cloudy with Rain 48 8.8 44 6.9 88 88 SSE 6 9 30.05 1018 7 11.26538 0.04 1.016
9:15 pm 21:15 Cloudy with Rain 47 8.5 45 7.1 91 91 SE 5 7 30.07 1018 10 16.0934 0 0
9:35 pm 21:35 Cloudy 48 8.9 44 6.6 86 86 ESE 7 11 30.06 1018 10 16.0934 0.01 0.254
9:55 pm 21:55 Cloudy 49 9.4 44 6.5 82 82 ESE 7 11 30.06 1018 10 16.0934 0.01 0.254
10:15 pm 22:15 Cloudy 48 9 44 6.6 85 85 E 6 9 30.06 1018 10 16.0934 0 0
10:35 pm 22:35 Cloudy with Light Drizzle 47 8.5 44 6.8 89 89 E 6 9 30.07 1018 10 16.0934 0 0
10:55 pm 22:55 Cloudy 48 9 44 6.5 85 85 ESE 7 11 30.06 1018 10 16.0934 0 0
11:15 pm 23:15 Cloudy 48 9 44 6.6 85 85 E 10 17 30.06 1018 10 16.0934 0 0
11:35 pm 23:35 Cloudy 48 9 44 6.6 85 85 ESE 7 11 30.06 1018 10 16.0934 0 0
11:55 pm 23:55 Cloudy 48 8.7 44 6.6 87 87 SE 5 7 30.05 1018 10 16.0934 0 0

Powered by AerisWeather